This is the latest recevied weather packets stored in our database for station/object HP1CDW-10. If no packets are shown the sender has not sent any weather packets the latest 10 day(s).
| Time | Temp. | Humidity | Pressure | Rain* | Wind** | Luminosity | Snow |
|---|---|---|---|---|---|---|---|
| 1788452995 | 36.11° C | 49% | 1003.7 hPa | - | - | - | - |
| 1788451802 | 35.56° C | 50% | 1004 hPa | - | - | - | - |
| 1788451180 | 35.56° C | 49% | 1004.1 hPa | - | - | - | - |
| 1788450576 | 36.11° C | 48% | 1004.2 hPa | - | - | - | - |
| 1788446342 | 35° C | 50% | 1004.2 hPa | - | - | - | - |
| 1788443923 | 34.44° C | 50% | 1004 hPa | - | - | - | - |
| 1788441504 | 34.44° C | 51% | 1004 hPa | - | - | - | - |
| 1788440899 | 34.44° C | 50% | 1003.8 hPa | - | - | - | - |
| 1788440294 | 34.44° C | 50% | 1003.7 hPa | - | - | - | - |
| 1788439690 | 34.44° C | 50% | 1003.5 hPa | - | - | - | - |
| 1788439085 | 34.44° C | 50% | 1003.3 hPa | - | - | - | - |
| 1788438480 | 34.44° C | 50% | 1003.2 hPa | - | - | - | - |
| 1788437875 | 34.44° C | 51% | 1003.2 hPa | - | - | - | - |
| 1788437270 | 33.89° C | 52% | 1003.5 hPa | - | - | - | - |
| 1788436061 | 34.44° C | 51% | 1003.7 hPa | - | - | - | - |
| 1788432432 | 34.44° C | 50% | 1003.3 hPa | - | - | - | - |
| 1788431827 | 34.44° C | 51% | 1003.3 hPa | - | - | - | - |
| 1788429408 | 34.44° C | 51% | 1002.7 hPa | - | - | - | - |
| 1788428803 | 35° C | 51% | 1002.4 hPa | - | - | - | - |
| 1788428199 | 34.44° C | 51% | 1002.6 hPa | - | - | - | - |
| 1788427594 | 35° C | 50% | 1002.6 hPa | - | - | - | - |
| 1788426384 | 35° C | 50% | 1002.6 hPa | - | - | - | - |
| 1788422756 | 35° C | 49% | 1002.2 hPa | - | - | - | - |
| 1788419127 | 35.56° C | 48% | 1003.1 hPa | - | - | - | - |
| 1788418522 | 35° C | 50% | 1003.1 hPa | - | - | - | - |
* Rain since midnight (hover to see other rain measurements)
** Current wind speed in m/s (hover to see current wind gust speed)